Regional Weather Roundup
Issued by NWS Wakefield, VA

Home | Current Version | Previous Version | Graphics & Text | Print | Product List | Glossary On
Versions: 1 2 3 4 5 6 7 8 9 10 11 12 13 14 15 16 17 18 19 20 21 22 23 24 25 26 27 28 29 30 31 32 33 34 35 36 37 38 39 40 41 42 43 44 45 46 47 48 49 50
000
ASUS41 KAKQ 271110
RWRAKQ

REGIONAL WEATHER ROUNDUP
NATIONAL WEATHER SERVICE WAKEFIELD VA
600 AM EST TUE JAN 27 2015

Note: "fair" indicates few or no clouds below 12,000 feet with no
significant weather and/or obstructions to visibility. * = Denotes
station may not report precipitation (e.g., rain,snow,etc.),
thunder or fog.

VAZ042-051-052>054-056-271200-
NORTHERN VIRGINIA

CITY           SKY/WX    TMP DP  RH WIND       PRES   REMARKS
WASH NATIONAL  FLURRIES  31  22  69 N15       29.77R WCI  20
DULLES         FLURRIES  28  21  75 NW15G24   29.76R WCI  16
FORT BELVOIR   MIX PCPN  30  22  73 NW13G21   29.76S WCI  20
QUANTICO       LGT SNOW  30  23  75 N14G26    29.78R WCI  19
FREDERICKSBRG* CLOUDY    31  25  78 N9        29.75S
STAFFORD*      CLOUDY    29  26  88 CALM      29.80R
WARRENTON      CLOUDY    31  27  84 N12G24    29.75S WCI  22
CULPEPER*      FLURRIES  30  25  80 N12G17    29.77R WCI  21
MANASSAS*      CLOUDY    28  27  93 N14       29.77S WCI  17
LEESBURG*      CLOUDY    30  27  86 N14G21    29.78S WCI  20
WINCHESTER     LGT SNOW  28  23  80 NW6       29.78R
FRONT ROYAL*   CLOUDY    28  25  86 CALM      29.77R
LURAY*         LGT SNOW  28  28 100 CALM      29.76S
$$

VAZ048-049-060>072-079>083-271200-
CENTRAL AND SOUTH CENTRAL VIRGINIA

CITY           SKY/WX    TMP DP  RH WIND       PRES   REMARKS
RICHMOND       LGT SNOW  30  25  81 N17G25    29.74R FOG     WCI  18
CHESTERFIELD*  CLOUDY    28  16  59 N9        29.76R
PETERSBURG*    LGT SNOW  32  27  80 N12       29.76R WCI  23
HANOVER        LGT SNOW  29  24  82 VRB7G16   29.76R
TAPPAHANNOCK*  CLOUDY    30  24  80 NW9       29.74R
QUINTON*       CLOUDY    29  26  90 N5        29.74R
CHARLOTTSVILLE CLOUDY    32  22  66 NW7       29.73R
GORDONSVILLE*  CLOUDY    29  25  86 CALM      29.75R FOG
ORANGE*        LGT SNOW  32  28  86 N3        29.76R
LOUISA*        LGT SNOW  28  27  93 N5        29.73R
BUMPASS*       CLOUDY    29  25  84 N5        29.74S
FARMVILLE*     CLOUDY    33  33 100 CALM      29.74R FOG
CREWE*         CLOUDY    30  26  83 N3        29.74R
FORT PICKETT*  CLOUDY    30  27  88 N7        29.74R
CHASE CITY*    CLOUDY    34  34 100 CALM      29.74R
CLARKSVILLE*   CLOUDY    32  32 100 NW3       29.74R
SOUTH HILL*    CLOUDY    31  27  86 N6        29.79S
LAWRENCEVILLE* CLOUDY    31  28  89 N8        29.74R
EMPORIA*       CLOUDY    32  25  74 NW12G17   29.76R WCI  23
$$

VAZ088>098-271200-
SOUTHEAST VIRGINIA

CITY           SKY/WX    TMP DP  RH WIND       PRES   REMARKS
NORFOLK        LGT SNOW  31  27  85 N12G21    29.69S WCI  22
VIRGINIA BEACH LGT SNOW  32  28  85 NW14      29.68R FOG     WCI  22
NORFOLK NAVAL  FLURRIES  33  27  78 NW16      29.71R WCI  23
WEST POINT*    CLOUDY    32  27  81 N6        29.75R
SALUDA*        CLOUDY    29  26  88 N10G16    29.71S WCI  19
NEWPORT NEWS   FLURRIES  32  26  78 N9G18     29.71R
LANGLEY AFB    FLURRIES  30  26  86 N9        29.70S
FORT EUSTIS    FLURRIES  30  30  99 N10G18    29.70R WCI  21
WILLIAMSBURG*    N/A     30  28  93 N7        29.73R
HR EXEC AP*    CLOUDY    30  25  80 N9        29.73R
FRANKLIN*      CLOUDY    31  27  85 NW5       29.73R
WAKEFIELD      LGT SNOW  31  26  82 N8        29.73R
$$

VAZ020-022-025-037-045-271200-
WEST CENTRAL AND SOUTHWEST VIRGINIA

CITY           SKY/WX    TMP DP  RH WIND       PRES   REMARKS
STAUNTON*      CLOUDY    28  24  86 NE3       29.76S
WAYNESBORO*    CLOUDY    26  24  93 N5        29.72S
HOT SPRINGS VA CLEAR     13  12  98 W14       29.59R WCI  -3
LYNCHBURG      CLOUDY    30  16  56 NW7       29.75R
DANVILLE       CLOUDY    33  17  51 NW10      29.77R WCI  25
SOUTH BOSTON*  CLOUDY    32  24  72 NW7       29.76R
MARTINSVILLE   CLEAR     25  15  66 CALM      29.80R
ROANOKE        CLEAR     24  10  55 NW8       29.79R
BLACKSBURG     CLEAR     20  11  68 W8        29.77S
DUBLIN*        PTCLDY    23  15  72 N3        29.77S
MARION*        PTCLDY    23  15  71 W15G23    29.77R WCI  10
HILLSVILLE*    CLEAR     21  14  74 NW15      29.70S WCI   8
RICHLANDS*     CLOUDY    21  15  75 N10       29.77S WCI  10
WISE*          CLOUDY    25  25 100 N5        29.78R
ABINGDON*      CLOUDY    28  19  70 N5        29.80S
$$

MDZ021>025-VAZ099-100-271200-
SOUTHERN MARYLAND AND THE DELMARVA PENINSULA

CITY           SKY/WX    TMP DP  RH WIND       PRES   REMARKS
PATUXENT RIVER FLURRIES  29  23  78 N18       29.73R WCI  16
BAY BRIDGE APT   N/A     30  23  74 N14G21    29.75R WCI  20
LEONARDTOWN    CLOUDY    30  23  74 NW7       29.75R
DOVER          FLURRIES  27  23  84 N21       29.70R WCI  14
GEORGETOWN     CLOUDY    28  19  69 N8G21     29.69R
EASTON         CLOUDY    30  25  80 N12G23    29.75S WCI  21
CAMBRIDGE      CLOUDY    32  25  74 N12G17    29.71S WCI  23
SALISBURY      CLOUDY    30  23  75 N13G22    29.68R WCI  20
OCEAN CITY     CLOUDY    29  23  78 N15G23    29.66R WCI  18
WALLOPS ISLAND CLOUDY    28  25  88 N14       29.68R WCI  17
ACCOMACK*      CLOUDY    30  25  80 N17       29.68R WCI  18
$$

NCZ012>017-030>032-271200-
NORTH CENTRAL AND EASTERN NORTH CAROLINA

CITY           SKY/WX    TMP DP  RH WIND       PRES   REMARKS
ROANOKE RAPIDS CLOUDY    32  28  86 N8        29.75R
RALEIGH        CLOUDY    34  27  75 VRB6      29.76R
ELIZABETH CITY LGT SNOW  32  28  86 NW14      29.70R FOG     WCI  22
AHOSKIE*       CLOUDY    32  24  73 N10G16    29.73R WCI  24
EDENTON*       CLOUDY    33  29  86 N13       29.71R WCI  23
CURRITUCK*     LGT SNOW  32  29  90 NW10      29.69R WCI  24
KILL DEVIL HLS LGT SNOW  33  32  97 NW9G18    29.66R
MANTEO         CLOUDY    34  30  86 N16G25    29.67R WCI  23
CAPE HATTERAS  CLOUDY    36  33  89 N12G24    29.66R
TARBORO*       FLURRIES  35  27  71 N9        29.76R
GOLDSBORO      CLOUDY    36  36 100 CALM      29.74R
WASHINGTON     CLOUDY    35  30  82 NW10G17   29.72R
GREENVILLE     CLOUDY    34  28  80 N10G17    29.77R
NEW BERN       CLOUDY    40  31  70 NW14      29.71R
WILMINGTON     CLOUDY    40  37  89 NW14      29.73R
$$

VAZ048-271200-
ELSEWHERE

CITY           SKY/WX    TMP DP  RH WIND       PRES   REMARKS
HARRISBURG PA  LGT SNOW  26  20  77 NW8       29.77R
BALTIMORE      FLURRIES  28  22  78 NW6       29.75R
ANNAPOLIS      FLURRIES  30  24  78 NW12      29.75R WCI  20
ANDREWS AFB    MIX PCPN  28  26  92 NW9       29.74R
PHILADELPHIA   LGT SNOW  26  21  81 N14       29.73R WCI  14
HENDERSON NC   CLOUDY    32  29  90 CALM      29.75R
GREENSBORO     PTCLDY    28  16  60 N3        29.76R
ROCKY MOUNT    FLURRIES  33  31  92 N5        29.76R
$$

VAZ100-271200-
MARINE

STATION/POSITION TIME  TEMP    WIND        PRES    WAVE   SWELL
                       AIR SEA DIR/SP/G            HT/PER HT/PER
                 (UTC) (F)     (DEG/KT/KT) (MB)    (FT/S) (FT/S)
BRANDYWINE LGT   1100   27 37   10/ 28/ 32 1004.6R
CAPE MAY NJ      1100   27 38  340/  3/ 17 1004.1R
LEWES DE         1100   29 37  360/ 24/ 28 1004.8R
15NM E FENWICK I 1100   30 42              1002.7R  12/11
OCEAN-CITY-INLET 1100   30 39  350/ 18/ 23 1003.6S
WACHAPREAGUE VA  1100   30 42  350/  9/ 14 1004.5R
THOMAS POINT MD  1100   30 36  340/ 14/ 16 1008.2R
GOOSES REEF MD   1100   30 37  VRB 19/ 23  1005.7R   2/ 3
COVE POINT MD    1100   28     360/ 20/ 28 1006.1R
SOLOMONS ISLAND  1100      38                N/A
BISHOPS HEAD MD  1100   29 36  350/ 14/ 20 1005.2R
PINEY POINT MD   1100          360/ 15/ 16   N/A
POTOMAC MD       1100   30 38  360/ 14/ 19 1005.3R   2/ 3
CAMBRIDGE MD     1100   29 36  350/ 15/ 19 1005.9S
LEWISETTA VA     1100   29 38  350/ 10/ 13 1006.1R
RAPPAHANNOCK LGT 1100          340/ 27/ 29 1005.4R
STINGRAY PT      1100   30 39  340/ 16/ 19 1006.3R   2/ 3
YORK RVR RNG VA  1100   30     350/ 21/ 24 1004.5S
JAMESTOWN VA     1100   28 42  360/ 10/ 14   N/A     1/ 4
DOMINION TERM VA 1100   31     340/  4/ 13 1005.5S
KIPTOPEKE VA     1100      46  350/ 20/ 25   N/A
CHES BAY BRIDGE  1100   31 41  320/ 21/ 24 1004.8R
CAPE HENRY VA    1100   31     330/ 21/ 27 1003.6R
CHESAPEAKE LGHT  1000   32     340/ 28/ 30 1004.1R
WILLOUBY STN VA  1100   29     340/ 13/ 15 1005.9R
S CRANEY ISL VA  1100          350/ 12/ 18 1005.6R
CAPE HENRY BUOY  1100      45                N/A     8/11   3/11
1ST LANDING BUOY 1100   32 42  340/ 19/ 23 1005.0R   5/ 5
CAPE CHARLES BUO 1100      42                N/A     8/11   7/11
OFFSHORE WE BUOY 1100      46                N/A    10/10   8/10
64NM E OF VA BCH 1100   38 51  340/ 25/ 29 1001.6R  12/11   8/11
DUCK PIER NC     1100   34 44  330/ 19/ 22 1003.3R
44100 DUCK FRF   1100      45                N/A    11/11   7/11
44056 DUCK FRF   1100      44                N/A    10/11   5/11
OREGON INLET NC  1100   35 46  330/ 12/ 21 1004.0R
HATTERAS NC      1100   38 49  340/ 21/ 25 1004.3R


USA.gov is the U.S. government's official web portal to all federal, state and local government web resources and services.